[[{"header":{"parameterUnit":"m.s-1","parameterCategory":1,"la1":30.2991,"la2":30.254,"lo1":-89.0895,"lo2":-89.0444,"dy":0.0017,"dx":0.0017,"nx":28,"ny":28,"refTime":"2024-08-25T03:00:00:Z","depth":0,"parameterNumber":2,"parameterNumberName":"U-component_of_WINDS"},"data":[0,0,0,0,0,0,0,0,0,0,0,0,0,0,0,0,0,0,0,0,0,0,0,0,0,0,0,0,0,0,0,0,0,0,0,0,0,0,0,0,0,0,0,0,0,0,0,0,0,0,0,0,0,0,0,0,0,0,-0.84,-0.84,0,-0.8397,-0.8397,-0.8397,-0.8363,-0.8362,-0.8361,-0.836,-0.8359,-0.836,-0.8361,0,0,0,0,0,0,0,0,0,0,0,0,0,-0.8376,-0.8377,-0.84,-0.84,-0.84,-0.8397,-0.8397,-0.8397,-0.8363,-0.8362,-0.8361,-0.836,-0.8359,-0.836,-0.8361,0,0,0,0,0,0,0,0,0,0,0,0,0,-0.8381,-0.8377,-0.84,-0.8382,-0.8381,-0.8397,-0.8397,-0.8397,-0.8363,-0.8362,-0.8361,-0.8359,-0.8359,-0.836,-0.8361,-0.8394,0,0,-0.8364,-0.8365,0,0,0,0,0,0,0,0,-0.8381,-0.8382,-0.8385,-0.8383,-0.8382,-0.8379,-0.8388,-0.8396,-0.8364,-0.837,-0.836,-0.8359,-0.8367,-0.8367,-0.837,-0.8394,-0.8394,-0.8364,-0.8365,-0.8366,-0.8366,0,0,0,0,0,0,0,-0.8381,-0.8382,-0.8399,-0.8385,-0.8383,-0.8375,-0.8374,-0.839,-0.8376,-0.8369,-0.8367,-0.8367,-0.8366,-0.8369,-0.8369,-0.8394,-0.8364,-0.8365,-0.8366,-0.8367,-0.8446,-0.8447,0,0,0,0,0,0,-0.8383,-0.8382,-0.8399,-0.8399,-0.8378,-0.8376,-0.8376,-0.8381,-0.8375,-0.8373,-0.8368,-0.8365,-0.8367,-0.8368,-0.8369,-0.8408,-0.8366,-0.8367,-0.8367,-0.8444,-0.8446,-0.8448,0,0,0,0,0,0,-0.8382,-0.8384,-0.8399,-0.839,-0.8391,-0.8378,-0.8385,-0.8382,-0.8385,-0.8374,-0.8372,-0.8373,-0.8366,-0.8368,-0.8388,-0.8408,-0.8367,-0.8368,-0.8443,-0.8445,-0.8447,-0.8486,0,0,0,0,0,0,-0.8382,-0.8385,-0.8397,-0.839,-0.8391,-0.8418,-0.8386,-0.8383,-0.8387,-0.8383,-0.8379,-0.8377,-0.8365,-0.8387,-0.8389,-0.8408,-0.8369,-0.8441,-0.8444,-0.8446,-0.8483,-0.8489,-0.8495,0,0,0,0,0,-0.8381,-0.8408,-0.8398,-0.84,-0.8406,-0.8419,-0.8419,-0.8405,-0.8388,-0.8401,-0.8394,-0.8377,-0.8405,-0.8389,-0.8392,-0.8412,-0.844,-0.8443,-0.8446,-0.8481,-0.8488,-0.8495,0,0,0,0,0,0,-0.8418,-0.8407,-0.8395,-0.8421,-0.8421,-0.8413,-0.8428,-0.8414,-0.8419,-0.8415,-0.8398,-0.8397,-0.8421,-0.8418,-0.84,-0.8444,-0.8419,-0.8423,-0.8445,-0.8452,-0.8457,-0.8458,-0.837,0,0,0,0,0,-0.8429,-0.8439,-0.8429,-0.8453,-0.8454,-0.8441,-0.8446,-0.8435,-0.8434,-0.8434,-0.8429,-0.843,-0.8439,-0.8445,-0.8453,-0.8482,-0.8481,-0.8497,-0.8503,-0.8508,-0.8512,-0.8528,-0.8535,-0.8458,-0.8458,-0.8458,0,0,-0.8452,-0.8447,-0.8455,-0.846,-0.8459,-0.8471,-0.8441,-0.8455,-0.8464,-0.8436,-0.8456,-0.8452,-0.8452,-0.8477,-0.8488,-0.8476,-0.8533,-0.8512,-0.8516,-0.8517,-0.8532,-0.8539,-0.8546,-0.846,-0.846,-0.8459,0,0,-0.85,-0.8497,-0.8517,-0.8516,-0.8514,-0.8506,-0.8511,-0.8505,-0.8501,-0.852,-0.85,-0.851,-0.8526,-0.8526,-0.8529,-0.8577,-0.8562,-0.858,-0.8611,-0.8627,-0.8633,-0.8638,-0.8656,-0.8662,-0.8584,-0.8584,-0.8584,0,-0.8529,-0.8546,-0.8529,-0.8544,-0.8547,-0.8522,-0.8542,-0.8543,-0.8544,-0.8547,-0.8533,-0.8552,-0.855,-0.8575,-0.8587,-0.8589,-0.8595,-0.8581,-0.8633,-0.8638,-0.8643,-0.866,-0.8666,-0.8586,-0.8586,-0.8586,-0.8585,0,-0.8582,-0.8593,-0.8609,-0.8611,-0.8616,-0.8633,-0.862,-0.8626,-0.8615,-0.8608,-0.8628,-0.8624,-0.8631,-0.8636,-0.8625,-0.866,-0.8652,-0.8636,-0.8611,-0.8653,-0.8668,-0.8675,-0.8589,-0.8588,-0.8588,-0.8587,0,0,-0.8654,-0.8645,-0.8651,-0.8652,-0.8648,-0.8657,-0.8674,-0.868,-0.8686,-0.8688,-0.8702,-0.8715,-0.87,-0.8703,-0.8691,-0.8705,-0.8744,-0.8687,-0.8687,-0.8698,-0.8783,-0.8796,-0.8804,-0.8734,-0.8735,-0.8736,-0.8784,0,-0.87,-0.8728,-0.8713,-0.8743,-0.8754,-0.873,-0.8745,-0.8744,-0.8738,-0.8747,-0.874,-0.875,-0.8729,-0.8731,-0.8743,-0.8737,-0.8761,-0.8733,-0.8747,-0.8748,-0.8749,-0.8812,-0.8826,-0.8871,-0.879,-0.8791,-0.8791,0,-0.8759,-0.8763,-0.8793,-0.8788,-0.8792,-0.8805,-0.8809,-0.8818,-0.8817,-0.8811,-0.8814,-0.88,-0.8816,-0.8791,-0.8814,-0.8795,-0.8799,-0.8797,-0.8799,-0.88,-0.8773,-0.8816,-0.8885,-0.8892,-0.8801,-0.88,-0.8799,0,-0.8809,-0.8822,-0.8842,-0.8843,-0.8837,-0.8846,-0.8844,-0.8842,-0.8847,-0.8851,-0.8854,-0.886,-0.8863,-0.8868,-0.8856,-0.8839,-0.888,-0.8854,-0.8877,-0.8877,-0.8887,-0.8887,-0.8959,-0.8889,-0.8889,-0.8889,-0.8889,0,-0.8864,-0.8884,-0.8864,-0.8877,-0.8898,-0.8881,-0.8903,-0.8899,-0.8897,-0.8908,-0.8888,-0.89,-0.8882,-0.8892,-0.8882,-0.8903,-0.8904,-0.8901,-0.8898,-0.8903,-0.8904,-0.8907,-0.8903,-0.8891,-0.889,-0.889,-0.889,0,-0.8924,-0.8912,-0.8932,-0.8924,-0.8923,-0.8939,-0.8933,-0.8944,-0.8936,-0.8951,-0.8954,-0.8942,-0.8952,-0.894,-0.8949,-0.8943,-0.8971,-0.8963,-0.8971,-0.8969,-0.8993,-0.8991,-0.907,-0.908,-0.9003,-0.9004,-0.9004,0,-0.896,-0.8975,-0.8968,-0.8974,-0.8973,-0.8983,-0.8988,-0.8971,-0.8977,-0.8977,-0.8989,-0.8997,-0.9003,-0.9021,-0.9013,-0.9021,-0.9013,-0.904,-0.9014,-0.9019,-0.9015,-0.9014,-0.9016,-0.9046,-0.9047,-0.9048,-0.9048,0,-0.9026,-0.9019,-0.9026,-0.9031,-0.9036,-0.904,-0.9042,-0.9048,-0.9031,-0.9038,-0.9048,-0.9053,-0.9062,-0.9071,-0.9076,-0.9074,-0.9059,-0.9057,-0.9062,-0.9068,-0.9072,-0.9071,-0.8986,-0.9055,-0.9054,-0.9054,-0.9054,-0.9053,-0.9075,-0.9087,-0.9085,-0.9093,-0.9093,-0.9095,-0.9105,-0.9098,-0.9106,-0.9113,-0.9102,-0.9115,-0.9114,-0.9119,-0.9119,-0.9129,-0.9118,-0.9126,-0.9128,-0.9131,-0.9134,-0.907,-0.913,-0.913,-0.913,-0.9129,-0.9129,0,-0.9141,-0.9138,-0.9145,-0.9148,-0.9155,-0.9139,-0.914,-0.9147,-0.9159,-0.9158,-0.9165,-0.9176,-0.9185,-0.9178,-0.9185,-0.9194,-0.9188,-0.9197,-0.9197,-0.9197,-0.9144,-0.9139,-0.9202,-0.9202,-0.9202,-0.9202,-0.9202,-0.9202,-0.9175,-0.9195,-0.9188,-0.9207,-0.9204,-0.9216,-0.9218,-0.922,-0.922,-0.9234,-0.924,-0.9236,-0.9233,-0.924,-0.9247,-0.9244,-0.9248,-0.9261,-0.9256,-0.9207,-0.92,-0.9193,-0.9188,-0.9261,-0.9261,-0.9308,-0.9308,-0.9308]},{"header":{"parameterUnit":"m.s-1","parameterCategory":1,"la1":30.2991,"la2":30.254,"lo1":-89.0895,"lo2":-89.0444,"dy":0.0017,"dx":0.0017,"nx":28,"ny":28,"refTime":"2024-08-25T03:00:00:Z","depth":0,"parameterNumber":3,"parameterNumberName":"V-component_of_WINDS"},"data":[0,0,0,0,0,0,0,0,0,0,0,0,0,0,0,0,0,0,0,0,0,0,0,0,0,0,0,0,0,0,0,0,0,0,0,0,0,0,0,0,0,0,0,0,0,0,0,0,0,0,0,0,0,0,0,0,0,0,-0.4817,-0.4817,0,-0.4859,-0.486,-0.486,-0.489,-0.489,-0.4891,-0.4891,-0.4937,-0.4938,-0.4939,0,0,0,0,0,0,0,0,0,0,0,0,0,-0.4764,-0.4765,-0.4816,-0.4817,-0.4818,-0.4859,-0.486,-0.486,-0.489,-0.489,-0.4891,-0.4891,-0.4937,-0.4938,-0.4939,0,0,0,0,0,0,0,0,0,0,0,0,0,-0.4795,-0.4765,-0.4816,-0.4837,-0.484,-0.4859,-0.486,-0.486,-0.489,-0.489,-0.4891,-0.4891,-0.4937,-0.4938,-0.494,-0.4942,0,0,-0.4944,-0.4945,0,0,0,0,0,0,0,0,-0.4793,-0.4797,-0.4834,-0.4836,-0.4839,-0.487,-0.4858,-0.4888,-0.489,-0.4871,-0.4891,-0.4891,-0.4915,-0.4918,-0.4925,-0.4944,-0.4946,-0.4944,-0.4945,-0.4946,-0.4946,0,0,0,0,0,0,0,-0.4791,-0.4795,-0.4833,-0.4834,-0.4837,-0.4846,-0.485,-0.4864,-0.4891,-0.4873,-0.4875,-0.488,-0.4916,-0.4924,-0.4927,-0.4947,-0.4944,-0.4946,-0.4947,-0.4947,-0.4971,-0.4971,0,0,0,0,0,0,-0.4785,-0.4793,-0.4832,-0.4835,-0.4816,-0.4846,-0.4852,-0.4859,-0.489,-0.4895,-0.4879,-0.4881,-0.4921,-0.4925,-0.4928,-0.4934,-0.4946,-0.4947,-0.4948,-0.4972,-0.4971,-0.4971,0,0,0,0,0,0,-0.4784,-0.4788,-0.483,-0.4814,-0.482,-0.4847,-0.4855,-0.486,-0.4868,-0.4895,-0.49,-0.4882,-0.4921,-0.4926,-0.4939,-0.4936,-0.4948,-0.4949,-0.4972,-0.4971,-0.4971,-0.4945,0,0,0,0,0,0,-0.4782,-0.4787,-0.4788,-0.4814,-0.4821,-0.4839,-0.4855,-0.4861,-0.487,-0.4872,-0.4899,-0.4904,-0.4922,-0.4936,-0.494,-0.4938,-0.4951,-0.4972,-0.4972,-0.4971,-0.4946,-0.4944,-0.4941,0,0,0,0,0,-0.478,-0.4779,-0.4788,-0.4792,-0.4822,-0.4838,-0.4843,-0.4863,-0.487,-0.4871,-0.4889,-0.4903,-0.4936,-0.4937,-0.4942,-0.4941,-0.4973,-0.4972,-0.4971,-0.4947,-0.4944,-0.4941,0,0,0,0,0,0,-0.4753,-0.4783,-0.4793,-0.48,-0.4816,-0.4843,-0.4846,-0.4859,-0.4874,-0.4876,-0.4901,-0.4906,-0.4916,-0.493,-0.4931,-0.4945,-0.4956,-0.4956,-0.4936,-0.4933,-0.4931,-0.4928,-0.4952,0,0,0,0,0,-0.4747,-0.4757,-0.4784,-0.4788,-0.4795,-0.4819,-0.4827,-0.4841,-0.4859,-0.4866,-0.4885,-0.4903,-0.4917,-0.4926,-0.4941,-0.4948,-0.4955,-0.495,-0.4947,-0.4945,-0.4945,-0.4951,-0.495,-0.4969,-0.4969,-0.4969,0,0,-0.4737,-0.4755,-0.4759,-0.4783,-0.4797,-0.4807,-0.4824,-0.4835,-0.4843,-0.4868,-0.488,-0.4895,-0.4917,-0.4927,-0.4932,-0.4938,-0.4942,-0.4945,-0.4943,-0.4944,-0.4951,-0.4949,-0.4947,-0.4968,-0.4969,-0.4969,0,0,-0.4723,-0.4737,-0.4742,-0.4756,-0.4777,-0.4793,-0.4794,-0.4819,-0.483,-0.4842,-0.4861,-0.4872,-0.4896,-0.4911,-0.4922,-0.4914,-0.4928,-0.4918,-0.4906,-0.4912,-0.491,-0.4909,-0.4907,-0.4906,-0.4918,-0.4918,-0.4918,0,-0.4707,-0.4723,-0.4743,-0.4753,-0.4763,-0.4785,-0.4791,-0.4804,-0.4829,-0.4836,-0.4842,-0.4873,-0.4889,-0.4903,-0.4902,-0.4909,-0.4912,-0.4915,-0.4909,-0.4908,-0.4907,-0.4905,-0.4904,-0.4917,-0.4917,-0.4917,-0.4917,0,-0.4703,-0.4714,-0.4716,-0.4738,-0.4749,-0.4756,-0.4779,-0.4787,-0.4801,-0.4816,-0.483,-0.485,-0.4869,-0.4874,-0.4887,-0.489,-0.4893,-0.4904,-0.4915,-0.4903,-0.4902,-0.4902,-0.4915,-0.4915,-0.4916,-0.4916,0,0,-0.4673,-0.4707,-0.4707,-0.4718,-0.4744,-0.4753,-0.4762,-0.478,-0.4787,-0.4804,-0.4813,-0.4833,-0.4843,-0.4855,-0.487,-0.4875,-0.4868,-0.4885,-0.4886,-0.4882,-0.4874,-0.4866,-0.4865,-0.4878,-0.4878,-0.4878,-0.4873,0,-0.4663,-0.468,-0.4699,-0.4709,-0.472,-0.4741,-0.475,-0.4767,-0.4781,-0.4794,-0.4811,-0.4824,-0.4836,-0.4844,-0.4849,-0.4868,-0.4867,-0.4869,-0.4888,-0.4888,-0.4882,-0.4864,-0.4856,-0.485,-0.4872,-0.4872,-0.4872,0,-0.4654,-0.4669,-0.468,-0.4705,-0.471,-0.4717,-0.4735,-0.4746,-0.4767,-0.4777,-0.4791,-0.4807,-0.4819,-0.4829,-0.4846,-0.4847,-0.4856,-0.4866,-0.4866,-0.4869,-0.4879,-0.4867,-0.4848,-0.4847,-0.4871,-0.4871,-0.4872,0,-0.4631,-0.4654,-0.4664,-0.4673,-0.4702,-0.4706,-0.4719,-0.4739,-0.4749,-0.4766,-0.4773,-0.4791,-0.4801,-0.4815,-0.4836,-0.4841,-0.4852,-0.4863,-0.4862,-0.4861,-0.4863,-0.4863,-0.4846,-0.4868,-0.4868,-0.4868,-0.4868,0,-0.4618,-0.4625,-0.4654,-0.4661,-0.4669,-0.4691,-0.4699,-0.4713,-0.4731,-0.4741,-0.4762,-0.4771,-0.4798,-0.4811,-0.4828,-0.484,-0.4845,-0.4854,-0.4859,-0.4853,-0.4851,-0.4859,-0.486,-0.4868,-0.4868,-0.4868,-0.4868,0,-0.4594,-0.4615,-0.4627,-0.4653,-0.466,-0.4665,-0.4688,-0.4696,-0.4712,-0.4724,-0.4729,-0.4754,-0.4771,-0.4793,-0.4817,-0.4828,-0.4838,-0.4845,-0.4831,-0.4834,-0.4832,-0.4832,-0.4819,-0.4819,-0.4841,-0.4841,-0.484,0,-0.4585,-0.459,-0.4617,-0.4625,-0.4637,-0.4649,-0.4659,-0.4682,-0.4692,-0.4716,-0.472,-0.4738,-0.4753,-0.4779,-0.48,-0.4819,-0.4826,-0.4821,-0.4829,-0.4823,-0.4827,-0.4826,-0.4827,-0.4819,-0.4818,-0.4818,-0.4818,0,-0.4567,-0.4576,-0.459,-0.4607,-0.4618,-0.4633,-0.4649,-0.4655,-0.4681,-0.4691,-0.4708,-0.472,-0.4743,-0.4761,-0.4782,-0.4797,-0.4812,-0.4815,-0.4816,-0.481,-0.4801,-0.4806,-0.4826,-0.4815,-0.4815,-0.4816,-0.4816,-0.4816,-0.455,-0.4556,-0.4576,-0.4591,-0.4605,-0.4619,-0.4627,-0.4645,-0.4658,-0.4679,-0.4692,-0.4708,-0.4729,-0.4759,-0.4772,-0.4786,-0.4792,-0.4793,-0.4794,-0.4794,-0.4792,-0.4799,-0.479,-0.479,-0.479,-0.479,-0.4791,0,-0.4533,-0.4547,-0.456,-0.4581,-0.4593,-0.4606,-0.4624,-0.4633,-0.4647,-0.4665,-0.4679,-0.4699,-0.4716,-0.4739,-0.4758,-0.4765,-0.4773,-0.477,-0.4769,-0.4773,-0.4785,-0.4782,-0.4763,-0.4763,-0.4763,-0.4763,-0.4763,-0.4763,-0.4525,-0.4536,-0.4549,-0.4567,-0.4581,-0.4597,-0.4606,-0.462,-0.4634,-0.4655,-0.4669,-0.4684,-0.4704,-0.4725,-0.4742,-0.4748,-0.4755,-0.475,-0.4758,-0.4769,-0.4772,-0.4774,-0.4772,-0.4751,-0.4751,-0.4745,-0.4745,-0.4745]}]]